• Processing (Info)

  • MPEC 2007-F44 : 2007 FD3

    The following Minor Planet Electronic Circular may be linked-to from your own Web pages, but must not otherwise be redistributed electronically.

    A form allowing access to any MPEC is at the bottom of this page.


    Read MPEC 2007-F43 Read MPEC 2007-F45


    M.P.E.C. 2007-F44                                Issued 2007 Mar. 20, 11:20 UT
    
         The Minor Planet Electronic Circulars contain information on unusual
             minor planets and routine data on comets.  They are published
       on behalf of Commission 20 of the International Astronomical Union by the
              Minor Planet Center, Smithsonian Astrophysical Observatory,
                              Cambridge, MA 02138, U.S.A.
    
                 Prepared using the Tamkin Foundation Computer Network
    
                                  MPC@CFA.HARVARD.EDU
              URL http://cfa-www.harvard.edu/iau/mpc.html  ISSN 1523-6714
    
                                       2007 FD3
    
    Observations:
         K07F03D* C2007 03 19.43049 17 08 55.39 +46 11 14.2          18.9 V EF044703
         K07F03D  C2007 03 19.43646 17 08 53.41 +46 10 50.7          19.0 V EF044703
         K07F03D  C2007 03 19.44238 17 08 51.28 +46 10 30.0          18.3 V EF044703
         K07F03D  C2007 03 19.44829 17 08 49.59 +46 10 03.6          19.1 V EF044703
         K07F03D  C2007 03 19.47982 17 08 39.22 +46 08 01.8          18.9 V EF044703
         K07F03D  C2007 03 19.48606 17 08 37.06 +46 07 36.6          18.8 V EF044703
         K07F03D  C2007 03 19.49230 17 08 35.12 +46 07 12.8          18.8 V EF044703
         K07F03D  C2007 03 19.49852 17 08 33.03 +46 06 48.1          18.8 V EF044703
         K07F03D  C2007 03 20.38961 17 03 52.16 +45 05 01.3          19.2 V EF044G96
         K07F03D  C2007 03 20.39169 17 03 51.44 +45 04 52.4          19.2 V EF044G96
         K07F03D  C2007 03 20.39595 17 03 50.00 +45 04 34.5          19.1 V EF044G96
         K07F03D  C2007 03 20.40276 17 03 47.71 +45 04 05.9          19.0 R EF044651
         K07F03D  C2007 03 20.40385 17 03 47.35 +45 04 01.6          19.1 R EF044651
         K07F03D  C2007 03 20.40495 17 03 46.95 +45 03 56.7          19.1 R EF044651
    
    Observer details:
    651 Grasslands Observatory, Tucson.  Observer J. E. McGaha.  0.62-m f/5.1
        Newtonian reflector + CCD.
    703 Catalina Sky Survey.  Observer R. A. Kowalski.  Measurers E. C. Beshore,
        E. J. Christensen, G. J. Garradd, A. R. Gibbs, A. D. Grauer, R. E. Hill,
        R. A. Kowalski, S. M. Larson, R. H. McNaught.  0.68-m Schmidt + CCD.
    G96 Mt. Lemmon Survey.  Observer A. R. Gibbs.  Measurers E. C. Beshore,
        E. J. Christensen, G. J. Garradd, A. R. Gibbs, A. D. Grauer, R. E. Hill,
        R. A. Kowalski, S. M. Larson, R. H. McNaught.  1.5-m reflector + CCD.
    
    Orbital elements:
    2007 FD3                                                 Earth MOID = 0.1169 AU
    Epoch 2007 Apr. 10.0 TT = JDT 2454200.5                 MPC
    M  11.56521              (2000.0)            P               Q
    n   0.30240648     Peri.  139.00796     -0.90263752     -0.38207160
    a   2.1982411      Node    21.26184     +0.07600940     -0.59467438
    e   0.5298028      Incl.   33.12362     +0.42363674     -0.70737803
    P   3.26           H   19.7           G   0.15           U   9
    Residuals in seconds of arc
    070319 703  0.7+  0.0     070319 703  0.8-  0.5-    070320 G96  0.0   0.1+
    070319 703  0.3+  0.4-    070319 703  0.4+  0.3+    070320 651  0.0   0.3-
    070319 703  1.8-  1.9+    070319 703  0.0   0.2+    070320 651  0.1+  0.0
    070319 703  0.7+  1.5-    070320 G96  0.2+  0.2+    070320 651  0.2-  0.2-
    070319 703  0.4+  0.1+    070320 G96  0.0   0.1+
    
    Ephemeris:
    2007 FD3                 a,e,i = 2.20, 0.53, 33                  q = 1.0336
    Date    TT    R. A. (2000) Decl.     Delta      r     Elong.  Phase     V
    2007 03 21    17 00.49   +44 19.8    0.217    1.058   100.5    67.8    18.9
    2007 03 31    15 50.64   +22 56.9    0.145    1.090   125.5    48.3    17.5
    2007 04 10    14 18.13   -17 03.2    0.138    1.133   161.5    16.3    16.5
    2007 04 20    12 55.19   -41 28.1    0.208    1.185   147.5    27.1    17.9
    2007 04 30    12 05.03   -49 21.4    0.310    1.245   134.7    35.1    19.1
    2007 05 10    11 41.97   -51 55.5    0.422    1.309   127.4    37.8    19.9
    2007 05 20    11 35.85   -52 49.3    0.539    1.378   122.3    38.4    20.6
    2007 05 30    11 40.27   -53 10.5    0.660    1.448   118.3    38.0    21.1
    2007 06 09    11 51.46   -53 21.7    0.784    1.520   114.8    37.3    21.6
    2007 06 19    12 07.35   -53 31.0    0.910    1.592   111.4    36.4    22.0
    
    Timothy B. Spahr             (C) Copyright 2007 MPC           M.P.E.C. 2007-F44
    

    Read MPEC 2007-F43 Read MPEC 2007-F45


    MPEC number:

    Enter an MPEC number in one of the following forms:

    • 1997-B01 (the full form)
    • J97B01 (the packed version of the full form)
    • B01 (the abbreviated form)